[Iaude] MPEC G163: 2024 GW3 [a=1.40,e=0.46,i=5.5,H=24.7]

mpec at cfa.harvard.edu mpec at cfa.harvard.edu
Thu Apr 11 19:45:59 EDT 2024


M.P.E.C. 2024-G163                               Issued 2024 April 11, 23:44 UT

     The Minor Planet Electronic Circulars contain information on unusual
         minor planets, routine data on comets and natural satellites,
         and occasional editorial announcements.  They are published
    on behalf of Division F of the International Astronomical Union by the
          Minor Planet Center, Smithsonian Astrophysical Observatory,
                          Cambridge, MA 02138, U.S.A.
			  
             Prepared using the Tamkin Foundation Computer Network

                              MPC at CFA.HARVARD.EDU
            URL https://www.minorplanetcenter.net/    ISSN 1523-6714

                                    2024 GW3                                    


Observations:
     K24G03W* C2024 04 09.57291614 23 05.867+29 15 36.87         21.84wXEG163F52
     K24G03W  C2024 04 09.58483614 23 07.652+29 16 56.81         21.17wXEG163F52
     K24G03W  C2024 04 09.59665014 23 09.473+29 18 16.97         21.64wXEG163F52
     K24G03W KC2024 04 10.23495514 25 19.480+30 34 00.30               VEG163I52
     K24G03W KC2024 04 10.23805214 25 20.070+30 34 23.00               VEG163I52
     K24G03W KC2024 04 10.24114714 25 20.610+30 34 48.00         20.99GVEG163I52
     K24G03W KC2024 04 10.24424014 25 21.150+30 35 10.40         20.77GVEG163I52
     K24G03W 1C2024 04 10.97624 14 27 55.59 +32 09 35.4          21.9 VXEG163033
     K24G03W 1C2024 04 10.97803 14 27 55.97 +32 09 50.2          22.0 VXEG163033
     K24G03W 1C2024 04 10.97983 14 27 56.36 +32 10 05.1          22.3 VXEG163033
     K24G03W 1C2024 04 10.98163 14 27 56.73 +32 10 19.3          22.1 VXEG163033
     K24G03W KC2024 04 11.27006514 29 05.93 +32 50 25.7          20.6 GXEG163858
     K24G03W KC2024 04 11.27912214 29 07.78 +32 51 43.0          21.7 GXEG163858
     K24G03W KC2024 04 11.28856514 29 09.75 +32 53 03.4          21.3 GXEG163858
     K24G03W  C2024 04 11.36262314 29 25.076+33 03 35.54         21.1 GVEG163H01
     K24G03W  C2024 04 11.36756314 29 26.087+33 04 17.51         21.1 GVEG163H01
     K24G03W  C2024 04 11.37813814 29 28.277+33 05 47.32         20.8 GVEG163H01
     K24G03W  C2024 04 11.38347114 29 29.390+33 06 32.57         21.1 GVEG163H01
     K24G03W KB2024 04 11.88980914 31 45.60 +34 20 25.0          20.7 GXEG163I93
     K24G03W KB2024 04 11.90421014 31 49.14 +34 22 39.5          20.8 GXEG163I93

Observer details:
033 Karl Schwarzschild Observatory, Tautenburg.  Observers S. Melnikov, C.
    Hogner, F. Ludwig, M. Hartmann, B. Stecklum.  Measurer B. Stecklum.
    1.34-m f/3 Schmidt + CCD.
858 Tebbutt Observatory, Edgewood.  Observer F. B. Zoltowski.  0.51-m f/8.1
    Schmidt-Cassegrain + CCD.
F52 Pan-STARRS 2, Haleakala.  Observers J. Herman, T. Lowe, P. Minguez, A.
    Schultz, I. Smith.  Measurers K. Chambers, T. de Boer, J. Fairlamb, H.
    Gao, M. Huber, C.-C. Lin, E. Magnier, Y. Ramanjooloo, R. Wainscoat, R.
    Weryk.  1.8-m Ritchey-Chretien + CCD.
H01 Magdalena Ridge Observatory, Socorro.  Observers W. H. Ryan, E. V. Ryan.
    Measurer W. H. Ryan.  2.4-m f/8.9 Ritchey-Chretien + CCD.
I52 Steward Observatory, Mt. Lemmon Station.  Observer G. J. Leonard.
    Measurers T. Beuden, V. F. Carvajal, D. Fay, J. B. Fazekas, D. C. Fuls, A.
    R. Gibbs, A. D. Grauer, H. Groeller, J. K. Hogan, R. A. Kowalski, S. M.
    Larson, G. J. Leonard, D. Rankin, R. L. Seaman, F. C. Shelly, K. W.
    Wierzchos.  1.0-m prime focus + CCD.
I93 St Pardon de Conques.  Observer F. Losse.  0.40-m f/3.7 reflector + CCD.

Orbital elements:
2024 GW3                                                 Earth MOID = 0.0500 AU
Epoch 2024 Mar. 31.0 TT = JDT 2460400.5                 Veres                   
M 316.30149              (2000.0)            P               Q                  
n   0.59728315     Peri.  224.95860     +0.29858815     +0.95064299             
a   1.3964194      Node    62.58488     -0.84673374     +0.30467159             
e   0.4565534      Incl.    5.45567     -0.44032612     +0.05876330             
P   1.65           H   24.77          G   0.15           U   8                  
Residuals in seconds of arc
240409 F52  0.1+  0.0     240410 033  0.3-  0.2+    240411 H01  0.0   0.1-
240409 F52  0.1-  0.3-    240410 033  0.0   0.4+    240411 H01  0.1-  0.0
240409 F52  0.0   0.3+    240410 033  0.4+  0.6+    240411 H01  0.0   0.0
240410 I52  0.3-  0.0     240410 033  0.5+  0.1+    240411 H01  0.0   0.0
240410 I52  0.2+  0.8-    240411 858  0.0   0.0     240411 I93  0.5+  0.1-
240410 I52  0.2+  0.7+    240411 858  0.3-  0.0     240411 I93  0.3-  0.3+
240410 I52  0.1+  0.3-    240411 858  0.0   0.1-

Ephemeris:
2024 GW3                 a,e,i = 1.40, 0.46, 5                   q = 0.7589
Date    TT    R. A. (2000) Decl.     Delta      r    Elong.  Phase     V
2024 03 12    13 47 03.4 +08 47 00   0.3484  1.2953   145.3    25.9    24.2
...
2024 03 27    14 01 04.9 +14 49 17   0.2121  1.1867   150.3    24.6    22.9
...
2024 04 04    14 11 03.1 +21 14 37   0.1481  1.1272   147.0    28.9    22.2
...
2024 04 10    14 24 29.0 +30 05 29   0.1046  1.0824   138.5    37.9    21.6
2024 04 11    14 27 59.8 +32 13 12   0.09785 1.0749   136.2    40.2    21.5
2024 04 12    14 32 10.7 +34 37 43   0.09128 1.0675   133.7    42.8    21.4
...
2024 04 18    15 38 25.7 +58 02 20   0.05853 1.0230   107.3    69.5    21.1
...
2024 04 26    00 17 57.4 +51 13 15   0.05874 0.9652    44.4   133.1    24.6
...
2024 05 11    01 32 20.4 +13 54 54   0.1605  0.8663    24.3   151.3    29.2

M. P. C. Staff               (C) Copyright 2024 MPC           M.P.E.C. 2024-G163





More information about the Iaude mailing list